Location: Hawks Ness
(60.2333°N, 1.1667°W)
Time: 02:37:17
(UTC+00:00)

Cosmos 1726 - Pass Details

Date: 30 January 2020
Orbit: 483 x 500 km, 82.5° (Epoch: 25 February)

Event Time Altitude Azimuth Distance (km) Brightness Sun altitude
Exits shadow 06:07:45 21° 332° (NNW) 1,132 3.6 -16.6°
Drops below altitude 10° 06:09:36 10° 357° (N) 1,682 4.7 -16.4°
Sets 06:11:57 0° 10° (N) 2,567 5.8 -16.1°
